This is the latest recevied weather packets stored in our database for station/object M0SDM. If no packets are shown the sender has not sent any weather packets the latest 10 day(s).
| Time | Temp. | Humidity | Pressure | Rain* | Wind** | Luminosity | Snow |
|---|---|---|---|---|---|---|---|
| 1778098221 | 7.22° C | 88% | 1014.9 hPa | 0 mm | - | - | - |
| 1778097321 | 7.22° C | 87% | 1014.7 hPa | 0 mm | - | - | - |
| 1778096421 | 7.22° C | 86% | 1014.7 hPa | 0 mm | - | - | - |
| 1778095521 | 7.22° C | 86% | 1014.6 hPa | 0 mm | - | - | - |
| 1778094621 | 7.78° C | 85% | 1014.5 hPa | 0 mm | - | - | - |
| 1778093721 | 7.78° C | 85% | 1014.2 hPa | 0 mm | - | - | - |
| 1778092821 | 7.78° C | 84% | 1014.2 hPa | 0 mm | - | - | - |
| 1778091921 | 8.33° C | 84% | 1014.2 hPa | 0 mm | - | - | - |
| 1778091021 | 8.33° C | 83% | 1014.1 hPa | 0 mm | - | - | - |
| 1778090121 | 8.33° C | 83% | 1014 hPa | 0 mm | - | - | - |
| 1778089221 | 8.33° C | 84% | 1013.9 hPa | 0 mm | - | - | - |
| 1778088321 | 8.33° C | 85% | 1013.8 hPa | 0 mm | - | - | - |
| 1778087421 | 8.33° C | 87% | 1013.8 hPa | 0 mm | - | - | - |
| 1778086521 | 8.33° C | 87% | 1013.7 hPa | 0 mm | - | - | - |
| 1778085621 | 8.33° C | 87% | 1013.5 hPa | 0 mm | - | - | - |
| 1778084721 | 8.89° C | 88% | 1013.5 hPa | 0 mm | - | - | - |
| 1778083821 | 8.33° C | 89% | 1013.5 hPa | 0 mm | - | - | - |
| 1778082921 | 8.33° C | 90% | 1013.5 hPa | 0 mm | - | - | - |
| 1778082021 | 8.33° C | 89% | 1013.4 hPa | 0 mm | - | - | - |
| 1778081121 | 8.33° C | 89% | 1013.2 hPa | 0 mm | - | - | - |
| 1778080221 | 8.33° C | 87% | 1013 hPa | 0 mm | - | - | - |
| 1778079321 | 8.89° C | 89% | 1013.1 hPa | 0 mm | - | - | - |
| 1778078421 | 8.33° C | 88% | 1012.9 hPa | 0 mm | - | - | - |
| 1778077521 | 8.89° C | 87% | 1012.6 hPa | 0 mm | - | - | - |
| 1778076621 | 9.44° C | 84% | 1012.6 hPa | 0 mm | - | - | - |
* Rain latest hour (hover to see other rain measurements)
** Current wind speed in m/s (hover to see current wind gust speed)